Weather History for Delta, CO

Change the Weather History Date:

Thursday, February 14, 2013

  Actual Average (KMTJ) Record (KMTJ)
Temperature  
Mean Temperature 36 °F 32 °F  
Max Temperature 47 °F 44 °F 54 °F (1999)
Min Temperature 25 °F 21 °F 3 °F (2004)
Degree Days  
Heating Degree Days 29 33  
Month to date heating degree days 483  
Since 1 July heating degree days 4288  
Cooling Degree Days 0 0  
Month to date cooling degree days 0  
Year to date cooling degree days 0  
Moisture  
Dew Point 19 °F    
Average Humidity 57    
Maximum Humidity 81    
Minimum Humidity 22    
Precipitation  
Precipitation 0.00 in 0.02 in 0.04 in (2002)
Month to date precipitation 0.25  
Year to date precipitation 0.90  
Sea Level Pressure  
Sea Level Pressure 30.22 in    
Wind  
Wind Speed 3 mph (NNE)    
Max Wind Speed 12 mph    
Max Gust Speed 18 mph    
Visibility 10 miles    
Events      
T = Trace of Precipitation, MM = Missing Value Source: NWS Daily Summary

Daily Weather History Graph

Daily Weather History Graph

Search for Another Location

Airport:

Trip Planner

Search our weather history database for the weather conditions in past years. The results will help you decide how hot, cold, wet, or windy it might be!

Date:

Astronomy

Feb. 14, 2013 Rise Set
Actual Time 7:04 AM MST 5:49 PM MST
Civil Twilight 6:36 AM MST 6:16 PM MST
Nautical Twilight 6:05 AM MST 6:47 PM MST
Astronomical Twilight 5:34 AM MST 7:18 PM MST
Moon 9:11 AM MST (2/14) 10:51 PM MST (2/14)
Length of Visible Light 11h 39m
Length of Day
10h 45m
Waxing Crescent, 22% of the Moon is Illuminated
Feb 14
Waxing Crescent
Feb 17
First Quarter
Feb 25
Full
Mar 4
Last Quarter
Mar 11
New

Hourly Weather History & Observations

Time (MST) Temp. Windchill Dew Point Humidity Pressure Visibility Wind Dir Wind Speed Gust Speed Precip Events Conditions
12:15 AM 27.7 °F - 21.0 °F 76% 30.19 in 10.0 mi Calm Calm - N/A   Clear
12:35 AM 26.8 °F 21.4 °F 21.2 °F 79% 30.19 in 10.0 mi ENE 4.6 mph - N/A   Clear
12:55 AM 27.3 °F 22.0 °F 21.2 °F 78% 30.18 in 10.0 mi East 4.6 mph - N/A   Clear
1:15 AM 28.0 °F 20.8 °F 21.2 °F 76% 30.18 in 10.0 mi ENE 6.9 mph - N/A   Clear
1:35 AM 28.8 °F 23.7 °F 21.2 °F 73% 30.18 in 10.0 mi ENE 4.6 mph - N/A   Clear
1:55 AM 29.1 °F 25.4 °F 20.8 °F 71% 30.17 in 10.0 mi East 3.5 mph - N/A   Clear
2:15 AM 27.7 °F - 21.4 °F 77% 30.17 in 10.0 mi Calm Calm - N/A   Clear
2:35 AM 28.2 °F - 21.0 °F 74% 30.17 in 10.0 mi Calm Calm - N/A   Clear
2:55 AM 28.0 °F - 21.2 °F 76% 30.17 in 10.0 mi Calm Calm - N/A   Clear
3:15 AM 28.2 °F 24.4 °F 20.8 °F 74% 30.17 in 10.0 mi SSW 3.5 mph - N/A   Clear
3:35 AM 27.1 °F 21.8 °F 20.8 °F 77% 30.17 in 10.0 mi SW 4.6 mph - N/A   Scattered Clouds
3:55 AM 26.6 °F - 20.5 °F 78% 30.17 in 10.0 mi Calm Calm - N/A   Mostly Cloudy
4:15 AM 26.6 °F - 20.7 °F 78% 30.16 in 10.0 mi Calm Calm - N/A   Overcast
4:35 AM 27.1 °F - 21.2 °F 78% 30.17 in 10.0 mi Calm Calm - N/A   Overcast
4:55 AM 26.6 °F 22.6 °F 21.6 °F 81% 30.17 in 10.0 mi East 3.5 mph - N/A   Overcast
5:15 AM 26.6 °F 22.6 °F 21.2 °F 80% 30.18 in 10.0 mi ENE 3.5 mph - N/A   Overcast
5:35 AM 26.4 °F 19.8 °F 20.7 °F 79% 30.18 in 10.0 mi NNE 5.8 mph - N/A   Mostly Cloudy
5:55 AM 26.6 °F 21.2 °F 20.3 °F 77% 30.19 in 10.0 mi NE 4.6 mph - N/A   Overcast
6:15 AM 27.0 °F - 20.3 °F 76% 30.20 in 10.0 mi Calm Calm - N/A   Overcast
6:35 AM 27.0 °F 23.0 °F 20.5 °F 77% 30.20 in 10.0 mi NNE 3.5 mph - N/A   Mostly Cloudy
6:55 AM 26.6 °F 21.2 °F 20.3 °F 77% 30.21 in 10.0 mi NNE 4.6 mph - N/A   Mostly Cloudy
7:15 AM 25.2 °F - 19.6 °F 79% 30.21 in 10.0 mi Calm Calm - N/A   Scattered Clouds
7:35 AM 25.5 °F - 19.4 °F 78% 30.21 in 10.0 mi Calm Calm - N/A   Clear
7:55 AM 27.1 °F 23.2 °F 20.3 °F 75% 30.22 in 10.0 mi NNE 3.5 mph - N/A   Scattered Clouds
8:15 AM 28.8 °F - 20.3 °F 71% 30.23 in 10.0 mi Calm Calm - N/A   Scattered Clouds
8:35 AM 29.1 °F - 20.8 °F 71% 30.25 in 10.0 mi Calm Calm - N/A   Scattered Clouds
8:55 AM 30.9 °F - 19.6 °F 63% 30.25 in 10.0 mi Calm Calm - N/A   Overcast
9:15 AM 31.6 °F 28.3 °F 19.2 °F 60% 30.25 in 10.0 mi SE 3.5 mph - N/A   Overcast
9:35 AM 32.0 °F - 19.2 °F 59% 30.25 in 10.0 mi Calm Calm - N/A   Overcast
9:55 AM 33.3 °F - 20.1 °F 59% 30.26 in 10.0 mi Calm Calm - N/A   Mostly Cloudy
10:15 AM 34.5 °F - 20.3 °F 56% 30.25 in 10.0 mi Calm Calm - N/A   Mostly Cloudy
10:35 AM 35.6 °F - 19.8 °F 53% 30.26 in 10.0 mi Calm Calm - N/A   Overcast
10:55 AM 36.3 °F - 19.8 °F 51% 30.26 in 10.0 mi Calm Calm - N/A   Mostly Cloudy
11:15 AM 37.4 °F - 20.5 °F 51% 30.26 in 10.0 mi Calm Calm - N/A   Mostly Cloudy
11:35 AM 37.8 °F - 20.8 °F 51% 30.26 in 10.0 mi Calm Calm - N/A   Overcast
11:55 AM 39.7 °F 36.5 °F 20.8 °F 47% 30.26 in 10.0 mi SSW 4.6 mph - N/A   Overcast
12:15 PM 40.5 °F - 21.2 °F 46% 30.25 in 10.0 mi Calm Calm - N/A   Overcast
12:35 PM 42.8 °F 41.1 °F 21.2 °F 42% 30.23 in 10.0 mi West 3.5 mph - N/A   Mostly Cloudy
12:55 PM 44.4 °F 39.5 °F 21.4 °F 40% 30.22 in 10.0 mi WSW 9.2 mph - N/A   Scattered Clouds
1:15 PM 45.3 °F 40.1 °F 21.2 °F 38% 30.22 in 10.0 mi SW 10.4 mph - N/A   Clear
1:35 PM 45.5 °F 41.3 °F 20.1 °F 36% 30.20 in 10.0 mi West 8.1 mph 17.3 mph N/A   Mostly Cloudy
1:55 PM 44.1 °F 38.6 °F 20.1 °F 39% 30.19 in 10.0 mi WSW 10.4 mph 16.1 mph N/A   Scattered Clouds
2:15 PM 43.9 °F 38.3 °F 18.7 °F 37% 30.19 in 10.0 mi SW 10.4 mph - N/A   Scattered Clouds
2:35 PM 45.0 °F 43.5 °F 15.8 °F 31% 30.19 in 10.0 mi West 3.5 mph - N/A   Scattered Clouds
2:55 PM 45.0 °F 41.8 °F 17.1 °F 33% 30.18 in 10.0 mi NW 5.8 mph 17.3 mph N/A   Mostly Cloudy
3:15 PM 46.6 °F - 15.3 °F 29% 30.19 in 10.0 mi ENE 3.5 mph - N/A   Scattered Clouds
3:35 PM 47.5 °F - 15.1 °F 27% 30.19 in 10.0 mi Calm Calm - N/A   Scattered Clouds
3:55 PM 47.8 °F - 13.3 °F 25% 30.19 in 10.0 mi West 6.9 mph 18.4 mph N/A   Mostly Cloudy
4:15 PM 47.1 °F - 15.1 °F 28% 30.19 in 10.0 mi North 8.1 mph - N/A   Scattered Clouds
4:35 PM 47.3 °F - 10.2 °F 22% 30.20 in 10.0 mi NNW 11.5 mph - N/A   Scattered Clouds
4:55 PM 46.0 °F 42.5 °F 10.4 °F 24% 30.20 in 10.0 mi NNW 6.9 mph - N/A   Clear
5:15 PM 45.5 °F 41.8 °F 11.5 °F 25% 30.20 in 10.0 mi North 6.9 mph - N/A   Clear
5:35 PM 43.7 °F 39.1 °F 11.7 °F 27% 30.21 in 10.0 mi NW 8.1 mph - N/A   Clear
5:55 PM 42.4 °F 37.0 °F 17.4 °F 37% 30.22 in 10.0 mi West 9.2 mph - N/A   Clear
6:15 PM 41.4 °F 35.2 °F 17.8 °F 39% 30.23 in 10.0 mi WNW 10.4 mph - N/A   Clear
6:55 PM 39.6 °F - 19.0 °F 44% 30.24 in 10.0 mi Calm Calm - N/A   Clear
7:15 PM 39.0 °F - 19.8 °F 46% 30.24 in 10.0 mi Calm Calm - N/A   Clear
7:35 PM 37.4 °F - 19.6 °F 49% 30.24 in 10.0 mi Calm Calm - N/A   Clear
7:55 PM 36.3 °F - 19.6 °F 51% 30.24 in 10.0 mi Calm Calm - N/A   Clear
8:15 PM 36.0 °F 32.1 °F 18.9 °F 50% 30.25 in 10.0 mi East 4.6 mph - N/A   Clear
8:35 PM 33.8 °F 27.7 °F 16.7 °F 50% 30.25 in 10.0 mi NNE 6.9 mph - N/A   Clear
8:55 PM 31.8 °F - 17.8 °F 56% 30.25 in 10.0 mi Calm Calm - N/A   Clear
9:15 PM 31.1 °F 27.7 °F 16.0 °F 54% 30.26 in 10.0 mi North 3.5 mph - N/A   Clear
9:35 PM 32.0 °F - 16.3 °F 52% 30.27 in 10.0 mi Calm Calm - N/A   Clear
9:55 PM 30.0 °F 26.5 °F 16.3 °F 57% 30.27 in 10.0 mi East 3.5 mph - N/A   Clear
10:15 PM 28.9 °F 25.2 °F 16.2 °F 59% 30.28 in 10.0 mi East 3.5 mph - N/A   Clear
10:35 PM 29.1 °F 23.0 °F 16.9 °F 60% 30.28 in 10.0 mi East 5.8 mph - N/A   Clear
10:55 PM 29.7 °F - 17.1 °F 59% 30.28 in 10.0 mi Calm Calm - N/A   Clear
11:15 PM 28.9 °F 22.8 °F 16.0 °F 58% 30.29 in 10.0 mi NNE 5.8 mph - N/A   Clear
11:35 PM 27.7 °F 22.4 °F 16.3 °F 62% 30.30 in 10.0 mi ENE 4.6 mph - N/A   Mostly Cloudy
11:55 PM 28.0 °F 22.8 °F 16.7 °F 62% 30.30 in 10.0 mi ENE 4.6 mph - N/A   Overcast